Regional Weather Roundup
Issued by NWS

Home | Current Version | Previous Version | Text Only | Print | Product List | Glossary Off
Versions: 1 2 3 4 5 6 7 8 9 10 11 12 13 14 15 16 17 18 19 20 21 22 23 24 25 26 27 28 29 30 31 32 33 34 35 36 37 38 39 40 41 42 43 44 45 46 47 48 49 50

000
ASUS45 KCYS 050810
RWRWY

WYOMING REGIONAL WEATHER ROUNDUP
NATIONAL WEATHER SERVICE CHEYENNE WY
200 AM MDT TUE MAY 05 2015

NOTE:  "FAIR" INDICATES FEW OR NO CLOUDS BELOW 12,000 FEET
WITH NO SIGNIFICANT WEATHER AND/OR OBSTRUCTIONS TO VISIBILITY.

WYZ001-050900-
YELLOWSTONE NATIONAL PARK

CITY           SKY/WX    TMP DP  RH WIND       PRES   REMARKS
LK YELLOWSTONE   N/A     30  28  92 NW3       30.07S
W YELLOWSTONE  NOT AVBL

$$
WYZ002>013-054>058-071-098>099-050900-
NORTHERN WYOMING

CITY           SKY/WX    TMP DP  RH WIND       PRES   REMARKS
JACKSON        FAIR      39  34  81 E8        30.01F WCI  34
CODY           FAIR      52  39  62 S13       29.90F
GREYBULL       FAIR      55  41  59 SE6       29.88S
WORLAND        FAIR      56  42  59 SE12      29.89F
SHERIDAN       FAIR      49  42  77 SE10      29.88F
BUFFALO        FAIR      47  42  83 SE17      29.93F
GILLETTE       FAIR      46  34  62 S21       29.97F
HULETT         FAIR      52  32  46 CALM      30.00F
NEWCASTLE      FAIR      48  28  46 SE12      30.06F

$$
WYZ014>020-022>026-101>103-050900-
CENTRAL WYOMING

CITY           SKY/WX    TMP DP  RH WIND       PRES   REMARKS
BIG PINEY      FAIR      38  34  85 N3        30.04F
PINEDALE       CLOUDY    43  39  87 NW5       30.03F
DUBOIS         FAIR      39  32  75 NW10      30.04S WCI  32
LANDER         MOCLDY    52  40  63 NE7       29.94S
RIVERTON       FAIR      53  40  61 E7        29.96S
CASPER         FAIR      37  36  96 NE5       29.98F WCI  33
DOUGLAS        FAIR      45  42  89 SE13      30.01F

$$
WYZ021-027>030-104>119-050900-
SOUTHERN WYOMING

CITY           SKY/WX    TMP DP  RH WIND       PRES   REMARKS
EVANSTON       FAIR      44  37  76 NE3       30.00S
KEMMERER       FAIR      43  37  81 N8        30.03F
FORT BRIDGER   CLOUDY    45  43  93 CALM      30.04S
ROCK SPRINGS   FAIR      44  38  79 E7        30.00F
DIXON          FAIR      44  37  76 E8        30.01F
RAWLINS        FAIR      40  38  93 NE7       30.01F
SARATOGA       FAIR      37  36  93 CALM      30.02F
LARAMIE        CLOUDY    42  41  96 S16       30.03F FOG
CHEYENNE       FOG       44  43  96 S6        30.06F VSB 1/4
TORRINGTON     CLOUDY    47  43  86 SE15      30.04F
PINE BLUFFS    FOG       43  43 100 SE5       30.07F VSB 1/2

$$



USA.gov is the U.S. government's official web portal to all federal, state and local government web resources and services.